Regional Weather Roundup
Issued by NWS

Home | Current Version | Previous Version | Text Only | Print | Product List | Glossary On
Versions: 1 2 3 4 5 6 7 8 9 10 11 12 13 14 15 16 17 18 19 20 21 22 23 24 25 26 27 28 29 30 31 32 33 34 35 36 37 38 39 40 41 42 43 44 45 46 47 48 49 50
000
ASHW40 PHFO 300543
RWRHI

WEATHER ROUNDUP FOR HAWAII
NATIONAL WEATHER SERVICE HONOLULU HI
700 PM HST MON JUN 29 2015

THIS IS AN AUTOMATED REPORT THAT HAS NOT BEEN QUALITY CONTROLLED.

NOTE..."FAIR" INDICATES FEW OR NO CLOUDS BELOW 12,000 FEET WITH NO
SIGNIFICANT WEATHER AND/OR OBSTRUCTIONS TO VISIBILITY.

* - THESE SITES REPORT LIMITED FIELDS

HIZ001>004-300600-
KAUAI-NIIHAU-

CITY           SKY/WX    TMP DP  RH WIND       PRES   REMARKS
LIHUE APT      CLEAR     79  69  71 E3        29.96R
PORT ALLEN*    NOT AVBL
POIPU*           N/A     81 N/A N/A E1          N/A
PRINCEVILLE*     N/A     77 N/A N/A MISG        N/A
KOKOLE POINT*  NOT AVBL
MOLOAA DAIRY*  NOT AVBL
WAIMEA HTS*      N/A     75  70  83 S2          N/A
PUU OPAE*        N/A     70  66  88 S3          N/A
PUU LUA*       NOT AVBL
MAKAHA RIDGE*    N/A     70  68  94 CALM        N/A
$$

HIZ005>011-300600-
OAHU-

CITY           SKY/WX    TMP DP  RH WIND       PRES   REMARKS
HONOLULU       PTCLDY    82  71  69 S6        29.94R
KALAELOA       PTCLDY    81  69  67 W7        29.95R
KANEOHE MCB    LGT RAIN  79  73  82 VRB5      29.92R
WHEELER FIELD  FAIR      78  68  69 SE3       29.94R
BELLOWS*         N/A    N/A N/A N/A E10         N/A
KAHUKU*          N/A    N/A N/A N/A E5          N/A
WHEELER*       NOT AVBL
WAIANAE HARBOR NOT AVBL
DILLINGHAM*      N/A     82  68  61 MISG        N/A
KAHUKU TRN*      N/A     79  72  78 SE3G10      N/A
KAWAILOA*        N/A     75  70  83 SE3         N/A
KII*             N/A     79  73  83 SE6G14      N/A
MAKUA RANGE*     N/A     81  70  69 W2          N/A
OAHU FOREST NW   N/A    N/A N/A N/A CALM        N/A
SCHOFIELD BRK*   N/A     77  68  73 MISG        N/A
SCHOFIELD S*   NOT AVBL
WAIANAE VLY*     N/A     88  81  79 MISG        N/A  HX 105
KUAOKALA*        N/A     75  68  78 S6          N/A
HONOULIUULI*   NOT AVBL
MOKUOLOE IS*     N/A    N/A N/A N/A MISG        N/A
PALEHUA*         N/A     68  64  88 NW3         N/A
WAIAWA PHB*    NOT AVBL
$$

HIZ012>013-300600-
MOLOKAI-

CITY           SKY/WX    TMP DP  RH WIND       PRES   REMARKS
MOLOKAI AIRPT  CLEAR     79  70  74 S6        29.96R
KALAUPAPA      NOT AVBL
MAKAPULAPAI*     N/A     79  72  78 E10G18      N/A
MOLOKAI 1*       N/A     81  79  94 NW1         N/A
PUU ALII*        N/A     67  65  93 CALM        N/A
$$

HIZ016-300600-
KAHOOLAWE-

CITY           SKY/WX    TMP DP  RH WIND       PRES   REMARKS
KAHOOLAWE*     NOT AVBL
HAKIOAWA*        N/A     76  68  76 MISG      30.39R
HONOKANAIA*      N/A     83  67  58 NE12G24   29.95R
KANELOA*         N/A     79  70  73 E16G23    30.01R
KEALIALALO*      N/A     75  64  69 E12G25    29.96R
LUA MAKIKA*    NOT AVBL
$$

HIZ014>015-300600-
LANAI-

CITY           SKY/WX    TMP DP  RH WIND       PRES   REMARKS
LANAI CITY     CLOUDY    74  70  87 NW5       30.01R
LANAI 1*         N/A     73  72  94 NE10        N/A
$$

HIZ017>028-300600-
MAUI-

CITY           SKY/WX    TMP DP  RH WIND       PRES   REMARKS
KAHULUI        PTCLDY    82  69  64 W9        29.93R
KAPALUA-W MAUI NOT AVBL
HANA AIRPORT   MOCLDY    75  72  88 SE6       29.99R
HANA*            N/A     79 N/A N/A SE5G12      N/A
HALEAKALA SUMM   N/A     52  -8   8 S3          N/A
MAALAEA BAY*   NOT AVBL
HALEAKALA*     NOT AVBL
KAUPO GAP*       N/A     66  63  88 S1G8        N/A
KULA 1*          N/A     57  55  93 CALM        N/A
$$

HIZ023>026-300600-
BIG ISLAND OF HAWAII COAST AND LOWER SLOPES-

CITY           SKY/WX    TMP DP  RH WIND       PRES   REMARKS
KAILUA KONA    MOCLDY    82  71  69 SW7       29.92R
HILO           MOCLDY    79  72  79 SE6       29.96R
HONOKAA*       NOT AVBL
KAWAIHAE MWT*    N/A     82 N/A N/A W5          N/A
KAWAIHAE*        N/A     81 N/A N/A S3          N/A
SOUTH POINT*     N/A     75 N/A N/A NE13G18     N/A
UPOLU AIRPORT*   N/A    N/A N/A N/A E16G22      N/A
KAMUELA*       MOCLDY    70  64  83 NE5       30.07R
HAKALAU*         N/A     57  55  93 SW3         N/A
KALOKO-HONOKO*   N/A     81  70  69 SW2G8     29.92R
PALI 2*          N/A     68  66  94 SE7G14      N/A
KEALAKOMO*       N/A     66  57  72 E13G22      N/A
KAUPULEHU*       N/A     79  68  69 W6G13       N/A
KAPAPALA*        N/A     71  68  91 NW1G9       N/A
LOWER KAHUKU*    N/A     66  66 100 NE2         N/A
PUHE CS*         N/A     82  72  69 SW2         N/A
PUHO CS*         N/A     79  72  78 NW2         N/A
PTA KEAMUKU*     N/A     72  61  68 CALM        N/A
WAIKOLOA*        N/A     79  68  69 W6G12       N/A
$$

HIZ027>028-300600-
BIG ISLAND OF HAWAII INTERIOR AND SUMMMITS-

CITY           SKY/WX    TMP DP  RH WIND       PRES   REMARKS
BRADSHAW FIELD PTCLDY    61  58  89 W5        30.30R
MK VISITOR CEN NOT AVBL
MAUNA KEA*       N/A     39  -8  13 CALM        N/A
MAUNA LOA*       N/A     48  36  61 MISG        N/A
MAUNA LOA 1*   NOT AVBL
PTA KIPUKA*      N/A     64  61  88 N3G9        N/A
PTA RANGE 17*    N/A     64  59  82 NW6G12      N/A
PTA WEST*        N/A     72  68  88 NW3G9       N/A
NENE CABIN*      N/A     57  55  94 E3          N/A
AHUMOA*          N/A     56  45  66 E5          N/A
PTA PORTABLE*  NOT AVBL
PUU MALI*        N/A     57  55  94 NE5         N/A
$$

HIC003-300600-
NORTHWEST ISLANDS-

CITY           SKY/WX    TMP DP  RH WIND       PRES   REMARKS
MIDWAY ISLAND  SUNNY     82  66  57 NW9       30.08F
MIDWAY NOS*    NOT AVBL
FRENCH FRIGATE NOT AVBL
$$

PHZ110>124-180-300600-
BUOY REPORTS

STATION/POSITION TIME  TEMP    WIND        PRES    WAVE   SWELL
                       AIR SEA DIR/SP/G            HT/PER HT/DIR
                 (UTC) (F)     (DEG/KT/KT) (MB)    (FT/S) (FT/D)
BUOY 51001       NOT AVBL
BUOY 51101       0500   78 81  340/  4/  6 1014.6R   5/ 9
BUOY 51100       NOT AVBL
BUOY 51002       0500   80 81   80/ 16/ 17 1012.4R   6/ 9   5/ 90
BUOY 51003       0500   80 82  130/  6/  8 1013.8R   4/10   3
BUOY 51004       0439   80 80   70/ 16/ 19 1012.1R   7/ 8   5/110
BARBERS PT BUOY  NOT AVBL
WAIMEA BAY BUOY  0500      79                N/A     2/ 8
KAILUA BAY BUOY  0500      80                N/A     4/ 8   2/140
LANAI BUOY       NOT AVBL
BARBERS PT 2     0500      81                N/A     3/15   2/180
PAUWELA MAUI     0500      79                N/A     5/ 8
HILO             0500      80                N/A     6/ 8   2/130
KANEOHE BAY BUOY 0500      79                N/A     3/ 7
HANALEI KAUAI    0500      80                N/A     2/ 8
KAHULUI HARBOR   0500   79 81  290/  9/ 11 1013.6R
HONOLULU HARBOR  0500   81 81  210/  3/  5 1014.0R
KILO NALU        NOT AVBL
HILO HARBOR      NOT AVBL
MOKUOLOE         0500   78 82  150/  6/  9 1013.7S
NAWILIWILI       0500   79 81  100/  4/  5 1014.2R
WHOTS BUOY       NOT AVBL
BUOY 51028       NOT AVBL
$$

......................KEY........................................
  SKY/WX - SKY CONDITIONS/PRESENT WEATHER
  TMP    - TEMPERATURE IN FAHRENHEIT
  DWPT   - DEWPOINT IN FAHRENHEIT
  RH     - RELATIVE HUMIDITY IN PERCENT
  WIND   - DIRECTION AND SPEED /MPH FOR ISLANDS...KTS FOR BUOYS/
  PRES   - MEAN SEA LEVEL PRESSURE IN INCHES OF HG
  VSB    - VISIBILITY IN MILES
  HX     - HEAT INDEX
  WCI    - WIND CHILL INDEX
  VRB    - VARIABLE WIND DIRECTION
  N/A    - NOT AVAILABLE



USA.gov is the U.S. government's official web portal to all federal, state and local government web resources and services.